Showing default

O3B FM13, 43234

Orbit data source: Space-Track

O3B FM13, 43234 is a payload satellite owned by O3B SES (JE) that was launched on Fri, 09 Mar 2018 UTC via a SOYUZ-ST-B launch vehicle from the French Guiana (FRGUI). Payload-class satellites include a variety of spacecraft equipped with specific instruments for various scientific and technological missions. These include communications satellites like Starlink; space stations such as the ISS; scientific satellites like the Hubble; Earth observation satellites from companies like Planet Labs, Umbra, and HawkEye 360; GPS; miniature CubeSats for education and research; and military/defense satellites.

Loading next visibility...
Identifier
43234, 2018-024D
Orbit
Active
Country
Flag of UnknownUnknown / O3B
Related business
Manufacturer
Thales Alenia
Mission
Operational Commercial Communications
Bus & Motor
PRISMA?, LS-400 AOCS?
Mass
700 kg wet, ~500 kg dry
Launch date (UTC)
2018-03-09 (8 years ago)
Launch vehicle
SOYUZ-ST-B
Launch site
French Guiana (FRGUI)
Object type
Payload
Rocket body
Debris
Shape & HBR
Trap Box + 2 Pan, 6.0 m
Radar Cross Section
21.980 m², Large (>1 m²)

Expand to show TLE details & history
Last TLE update: 1 month ago

TLE from 1 month ago
0 O3B FM13
1 43234U 18024D   26001.74295642 -.00000015  00000-0  00000-0 0  9996
2 43234   0.0598 354.9680 0004572 285.2619  79.7172  5.00115581142721
Epoch: 2026-01-01T17:49Z
TLE epoch observation values (Epoch: 2026-01-01T17:49:51.434Z)
Latitude
0.00427°
Longitude
-8.85752°
Altitude
8,063.193 km
Speed
5.255 km/s
True Right ascension
23h 59m 59s
True Declination
0° 00' 15"
Sunlit
Object was in daylight at epoch
Visualization orbit readout
Latitude
Unknown
Longitude
Unknown
Altitude
Unknown
Speed
Unknown
Apparent Right ascension
Unknown
Apparent Declination
Unknown
Sunlit
N/A
Visualization observer readout
Local Sidereal Time
02:43:53
Azimuth
Unknown
Elevation
Unknown
Doppler factor
Unknown
Orbital elements
Apogee altitude
8,075.552 km
Perigee altitude
8,062.342 km
Semi-major axis
14,447.084 km
Eccentricity
0.00046
Inclination
0.0598°
RAAN
354.968°
Arg. of periapsis
285.2619°
True anomaly
79.76876°
Mean anomaly
79.7172°
Eccentric anomaly
79.74298°
Mean motion
1.24989 °/min
Orbital period
288.02 mins
BSTAR
0
Loading maneuver chart data...
Computing Atmospheric mass density...
Loading historical data...
Loading historical data...
Loading historical data...
Loading historical data...
Loading historical data...
Loading historical data...
Loading historical data...
Other satellites on launch #24 in the year 2018 (2018-03-09 UTC)

Documentation

Showing up to 5 results
|